Tracking 17265 objects as of 1-September-2015
HD Live streaming from Space Station

COSMOS 2251 DEB

Track COSMOS 2251 DEB now!
10-day predictions
COSMOS 2251 DEB is classified as:


NORAD ID: 35970
Int'l Code: 1993-036AVL
Perigee: 683.3 km
Apogee: 745.3 km
Inclination: 74.0 °
Period: 98.9 minutes
Semi major axis: 7085 km
RCS: 0.0106 m2 (small)
Launch date: June 16, 1993
Source: Commonwealth of Independent States (former USSR) (CIS)

Note: This is SATELLITE DEBRIS
Your satellite tracking list
Your tracking list is empty





NASA's NSSDC Master Catalog

Two Line Element Set (TLE):
1 35970U 93036AVL 15244.30067444  .00001734  00000-0  39857-3 0  9999
2 35970  74.0426 223.4686 0043777 205.0871 154.8167 14.55669298318167

Source of the keplerian elements: AFSPC

N2YO: 290